Flag for Germany Weather past 2 weeks in Rottweil, Baden-Württemberg, Germany

Now
57 °F

Passing clouds.


Feels Like: 56 °F
Forecast: 42 / 72 °F
Wind: 6 mph from East

Location: Donaueschingen / Villingen


UV Index: 3 (Moderate)

Visibility: N/A


Pressure: 29.95 "Hg

Humidity: 55%

Dew point: 41 °F

Location of RottweilLocation

Historic Weather in Rottweil

°F

Rottweil temperature yesterday

Maximum temperature yesterday: 64 °F (at 4:50 PM)
Minimum temperature yesterday: 41 °F (at 8:20 AM)
Average temperature yesterday: 58 °F

Past Weeks' High & Low Weather Summary

 TemperatureHumidityPressure
High68 °F (Apr 24, 4:50 PM)100% (Apr 10, 8:20 AM)30.30 "Hg (Apr 10, 8:20 AM)
Low30 °F (Apr 16, 8:20 AM)20% (Apr 17, 4:20 PM)29.65 "Hg (Apr 20, 5:20 PM)
Average52 °F64%30.01 "Hg
* Reported Apr 10 8:20 AM — Apr 24 8:20 PM, Rottweil, Weather by CustomWeather, © 2014

Note: Actual official high and low records may vary slightly from our data, if they occured in-between our weather recording intervals... More about our weather records

Advertising

Historic Weather Conditions — Data for Previous 24 hours

 ConditionsComfort  
Time TempWeatherWind HumidityBarometerVisibility
8:20 PM
Apr 24
57 °FPassing clouds.6 mph55%29.95 "HgN/A
7:20 PM61 °FPassing clouds.10 mph55%29.95 "HgN/A
6:50 PM64 °FSunny.8 mph46%29.95 "Hg10 mi
6:20 PM66 °FPassing clouds.8 mph43%29.98 "HgN/A
5:50 PM68 °FPassing clouds.7 mph40%29.98 "HgN/A
5:20 PM66 °FSunny.12 mph40%29.98 "Hg10 mi
4:50 PM68 °FSunny.9 mph40%29.98 "Hg10 mi
4:20 PM66 °FPassing clouds.9 mph37%29.98 "HgN/A
3:50 PM66 °FPassing clouds.13 mph40%30.01 "HgN/A
3:20 PM64 °FPassing clouds.10 mph49%30.01 "HgN/A
2:50 PM64 °FSunny.6 mph46%30.04 "Hg10 mi
2:20 PM64 °FPassing clouds.7 mph46%30.04 "HgN/A
1:50 PM63 °FPassing clouds.13 mph49%30.04 "HgN/A
1:20 PM63 °FSunny.8 mph49%30.07 "Hg10 mi
12:50 PM63 °FScattered clouds.8 mph49%30.07 "HgN/A
12:20 PM63 °FScattered clouds.9 mph49%30.07 "HgN/A
11:50 AM64 °FScattered clouds.8 mph49%30.07 "HgN/A
11:20 AM63 °FScattered clouds.6 mph56%30.09 "HgN/A
10:50 AM61 °FPassing clouds.5 mph63%30.09 "HgN/A
10:20 AM61 °FPassing clouds.5 mph68%30.09 "HgN/A
9:50 AM57 °FSunny.2 mph82%30.09 "Hg10 mi
8:20 AM41 °FSunny.2 mph100%30.09 "Hg10 mi
Weather by CustomWeather, © 2014

See weather overview